GW4300 Weather Reports


time (UTC)temp
C
wind
direction
speed
KPH
gust
KPH
rain 1hr
cm
rain 24hr
cm
rain mn
cm
humidity
%
barometer
mb
20260504215002 22 126 1.6 9.7 0.00 0.00 0.00 43 1010.2
20260504214511 22 327 1.6 8.0 0.00 0.00 0.00 42 1010.2
20260504214008 22 78 1.6 9.7 0.00 0.00 0.00 43 1010.2
20260504213506 22 281 0.0 9.7 0.00 0.00 0.00 40 1010.2
20260504212507 22 208 1.6 9.7 0.00 0.00 0.00 40 1010.2
20260504212008 22 292 1.6 9.7 0.00 0.00 0.00 40 1010.2
20260504211514 22 209 1.6 8.0 0.00 0.00 0.00 40 1010.2
20260504211005 22 207 0.0 6.4 0.00 0.00 0.00 39 1010.2
20260504210506 22 175 1.6 6.4 0.00 0.00 0.00 38 1010.1
20260504210031 22 302 3.2 8.0 0.00 0.00 0.00 38 1010.3
20260504205506 22 219 1.6 9.7 0.00 0.00 0.00 38 1010.4
20260504205006 23 5 1.6 9.7 0.00 0.00 0.00 38 1010.3
20260504204528 23 125 1.6 8.0 0.00 0.00 0.00 36 1010.3
20260504204005 23 175 1.6 8.0 0.00 0.00 0.00 36 1010.3
20260504203506 23 9 1.6 6.4 0.00 0.00 0.00 37 1010.4
20260504202507 23 236 0.0 4.8 0.00 0.00 0.00 38 1010.6
20260504202008 23 84 0.0 4.8 0.00 0.00 0.00 38 1010.7
20260504201518 23 296 1.6 4.8 0.00 0.00 0.00 36 1010.7
20260504201005 23 84 0.0 4.8 0.00 0.00 0.00 37 1010.7
20260504200505 23 327 1.6 6.4 0.00 0.00 0.00 37 1010.7
20260504200020 23 170 1.6 6.4 0.00 0.00 0.00 36 1010.8
20260504195504 23 153 1.6 4.8 0.00 0.00 0.00 38 1010.9
20260504195006 23 134 0.0 4.8 0.00 0.00 0.00 36 1011.0
20260504194518 23 74 1.6 4.8 0.00 0.00 0.00 38 1011.0
20260504194007 23 170 1.6 4.8 0.00 0.00 0.00 36 1011.1
20260504193506 23 132 1.6 4.8 0.00 0.00 0.00 36 1011.3
20260504193020 23 173 1.6 4.8 0.00 0.00 0.00 37 1011.4
20260504192507 23 148 0.0 4.8 0.00 0.00 0.00 38 1011.5
20260504192009 22 280 0.0 4.8 0.00 0.00 0.00 37 1011.6
20260504191514 22 93 1.6 6.4 0.00 0.00 0.00 37 1011.6
20260504191008 22 164 1.6 6.4 0.00 0.00 0.00 35 1011.7
20260504190508 23 256 0.0 6.4 0.00 0.00 0.00 36 1011.7
20260504185506 22 347 1.6 6.4 0.00 0.00 0.00 36 1011.9
20260504185005 22 153 1.6 6.4 0.00 0.00 0.00 36 1011.9
20260504184524 22 103 0.0 4.8 0.00 0.00 0.00 37 1012.0
20260504184008 22 173 1.6 4.8 0.00 0.00 0.00 36 1012.0
20260504183506 22 184 0.0 6.4 0.00 0.00 0.00 36 1012.1
20260504183018 22 154 1.6 6.4 0.00 0.00 0.00 35 1012.1
20260504182507 22 263 0.0 6.4 0.00 0.00 0.00 36 1012.1
20260504182008 22 153 0.0 3.2 0.00 0.00 0.00 37 1012.1
20260504181522 22 138 1.6 6.4 0.00 0.00 0.00 38 1012.2
20260504181009 21 169 0.0 6.4 0.00 0.00 0.00 37 1012.2
20260504175504 21 202 0.0 4.8 0.00 0.00 0.00 37 1012.5
20260504175007 21 48 1.6 4.8 0.00 0.00 0.00 37 1012.5
20260504174507 21 178 1.6 6.4 0.00 0.00 0.00 38 1012.6
20260504174002 21 151 0.0 6.4 0.00 0.00 0.00 39 1012.7
20260504173504 21 77 1.6 9.7 0.00 0.00 0.00 40 1012.7
20260504173009 20 137 1.6 9.7 0.00 0.00 0.00 42 1012.8
20260504172503 20 115 1.6 4.8 0.00 0.00 0.00 40 1012.9
20260504172003 20 76 1.6 6.4 0.00 0.00 0.00 40 1012.9
20260504171516 20 103 1.6 6.4 0.00 0.00 0.00 39 1012.8
20260504170510 20 156 0.0 4.8 0.00 0.00 0.00 41 1013.0
20260504151007 18 333 1.6 4.8 0.00 0.00 0.00 41 1014.2
20260504150512 17 276 0.0 3.2 0.00 0.00 0.00 43 1014.3
20260504130509 14 216 1.6 6.4 0.00 0.00 0.00 51 1014.8
20260504110509 -17 0.0 0.0 0.00 0.00 0.00 1015.3
20260504100507 -17 0.0 0.0 0.00 0.00 0.00 1015.3
20260504082007 -17 0.0 0.0 0.00 0.00 0.00 1015.6
20260504081533 -17 0.0 0.0 0.00 0.00 0.00 1015.6
20260504081008 -17 0.0 0.0 0.00 0.00 0.00 1015.7
20260504080508 -17 0.0 0.0 0.00 0.00 0.00 1015.7
20260504050508 8 277 0.0 0.0 0.00 0.00 0.00 73 1015.8
20260504050021 8 277 0.0 0.0 0.00 0.00 0.00 72 1015.8
20260504045505 8 277 0.0 0.0 0.00 0.00 0.00 68 1015.8
20260504045008 8 264 0.0 0.0 0.00 0.00 0.00 69 1015.9
20260504044529 8 264 0.0 1.6 0.00 0.00 0.00 67 1016.0
20260504044010 9 264 0.0 1.6 0.00 0.00 0.00 67 1016.0
20260504043503 9 252 0.0 0.0 0.00 0.00 0.00 67 1015.9
20260504043015 8 251 0.0 0.0 0.00 0.00 0.00 66 1015.9
20260504042507 8 251 0.0 0.0 0.00 0.00 0.00 66 1015.9
20260504042008 8 273 0.0 0.0 0.00 0.00 0.00 64 1015.9
20260504041538 8 281 0.0 0.0 0.00 0.00 0.00 68 1015.8
20260504041009 8 281 0.0 0.0 0.00 0.00 0.00 69 1015.8
20260504040510 7 281 0.0 1.6 0.00 0.00 0.00 68 1015.8
20260504040032 7 282 0.0 1.6 0.00 0.00 0.00 70 1015.8
20260504035510 7 279 0.0 0.0 0.00 0.00 0.00 73 1015.8
20260504035006 7 279 0.0 0.0 0.00 0.00 0.00 74 1015.7
20260504034518 7 279 0.0 0.0 0.00 0.00 0.00 74 1015.6
20260504034007 7 279 0.0 0.0 0.00 0.00 0.00 75 1015.6
20260504033507 7 279 0.0 0.0 0.00 0.00 0.00 75 1015.6
20260504033025 7 279 0.0 0.0 0.00 0.00 0.00 75 1015.5
20260504032509 7 290 0.0 0.0 0.00 0.00 0.00 75 1015.4
20260504032012 7 290 0.0 0.0 0.00 0.00 0.00 74 1015.3
20260504031530 7 290 0.0 0.0 0.00 0.00 0.00 73 1015.2
20260504031006 7 290 0.0 0.0 0.00 0.00 0.00 73 1015.2
20260504030508 7 290 0.0 0.0 0.00 0.00 0.00 72 1015.2
20260504030022 7 290 0.0 0.0 0.00 0.00 0.00 72 1015.3
20260504025507 7 290 0.0 0.0 0.00 0.00 0.00 72 1015.2
20260504025011 7 290 0.0 0.0 0.00 0.00 0.00 71 1015.2
20260504024526 7 290 0.0 0.0 0.00 0.00 0.00 71 1015.2
20260504024009 7 290 0.0 0.0 0.00 0.00 0.00 70 1015.2
20260504023507 7 290 0.0 0.0 0.00 0.00 0.00 70 1015.2
20260504023018 7 290 0.0 0.0 0.00 0.00 0.00 69 1015.2
20260504022507 8 290 0.0 0.0 0.00 0.00 0.00 68 1015.2
20260504022008 8 290 0.0 0.0 0.00 0.00 0.00 68 1015.2
20260504021524 8 290 0.0 0.0 0.00 0.00 0.00 67 1015.2
20260504021006 8 290 0.0 0.0 0.00 0.00 0.00 67 1015.2
20260504020508 8 290 0.0 0.0 0.00 0.00 0.00 67 1015.1
20260504020036 8 290 0.0 0.0 0.00 0.00 0.00 66 1015.1
20260504015507 8 290 0.0 0.0 0.00 0.00 0.00 65 1015.2
20260504015005 8 290 0.0 0.0 0.00 0.00 0.00 64 1015.1
20260504014502 8 290 0.0 0.0 0.00 0.00 0.00 63 1015.2
20260504014006 9 290 0.0 0.0 0.00 0.00 0.00 63 1015.1
20260504013505 9 290 0.0 0.0 0.00 0.00 0.00 62 1015.1
20260504013006 9 290 0.0 0.0 0.00 0.00 0.00 61 1015.1
20260504012508 9 290 0.0 0.0 0.00 0.00 0.00 60 1015.0
20260504012004 10 290 0.0 0.0 0.00 0.00 0.00 60 1015.0
20260504011515 10 290 0.0 0.0 0.00 0.00 0.00 56 1014.9
20260504011001 10 290 0.0 0.0 0.00 0.00 0.00 55 1014.8
20260504010501 11 290 0.0 0.0 0.00 0.00 0.00 54 1014.8
20260504010005 11 290 0.0 0.0 0.00 0.00 0.00 52 1014.8
20260504005503 11 290 0.0 0.0 0.00 0.00 0.00 51 1014.8
20260504005004 12 290 0.0 0.0 0.00 0.00 0.00 49 1014.7
20260504004515 12 290 0.0 0.0 0.00 0.00 0.00 47 1014.6
20260504004004 12 290 0.0 0.0 0.00 0.00 0.00 47 1014.6
20260504003505 12 290 0.0 0.0 0.00 0.00 0.00 45 1014.5
20260504003019 12 290 0.0 0.0 0.00 0.00 0.00 44 1014.5
20260504002502 13 290 0.0 0.0 0.00 0.00 0.00 43 1014.5
20260504002002 13 290 0.0 0.0 0.00 0.00 0.00 41 1014.4
20260504001511 13 290 0.0 0.0 0.00 0.00 0.00 41 1014.4
20260504001004 13 290 0.0 0.0 0.00 0.00 0.00 40 1014.4
20260504000505 14 290 0.0 0.0 0.00 0.00 0.00 39 1014.4
20260504000013 14 290 0.0 1.6 0.00 0.00 0.00 39 1014.4
20260503235504 15 290 0.0 1.6 0.00 0.00 0.00 38 1014.3
20260503235004 15 258 0.0 0.0 0.00 0.00 0.00 35 1014.2
20260503234503 15 257 0.0 0.0 0.00 0.00 0.00 35 1014.2
20260503234003 15 257 0.0 3.2 0.00 0.00 0.00 33 1014.1
20260503233502 15 257 0.0 3.2 0.00 0.00 0.00 35 1014.0
20260503233011 16 234 0.0 3.2 0.00 0.00 0.00 32 1014.0
20260503232504 16 234 0.0 3.2 0.00 0.00 0.00 31 1014.0
20260503232005 16 271 0.0 1.6 0.00 0.00 0.00 31 1014.0
20260503231518 16 279 0.0 3.2 0.00 0.00 0.00 31 1014.0
20260503231010 16 266 0.0 4.8 0.00 0.00 0.00 31 1013.9
20260503230502 16 234 0.0 4.8 0.00 0.00 0.00 29 1013.9
20260503230011 16 290 0.0 3.2 0.00 0.00 0.00 29 1013.9
20260503225503 16 319 0.0 4.8 0.00 0.00 0.00 30 1013.9
20260503225003 16 340 0.0 6.4 0.00 0.00 0.00 29 1014.0
20260503224513 16 195 3.2 11.3 0.00 0.00 0.00 29 1014.1
20260503224007 16 204 3.2 14.5 0.00 0.00 0.00 28 1014.0
20260503223507 17 334 4.8 14.5 0.00 0.00 0.00 28 1013.9
20260503223026 17 288 3.2 11.3 0.00 0.00 0.00 29 1014.0
20260503222503 16 309 0.0 11.3 0.00 0.00 0.00 30 1013.9
20260503222004 16 271 1.6 9.7 0.00 0.00 0.00 29 1013.9
20260503221508 16 217 1.6 8.0 0.00 0.00 0.00 30 1013.9
20260503221004 16 215 3.2 12.9 0.00 0.00 0.00 28 1014.0
20260503220504 16 207 3.2 12.9 0.00 0.00 0.00 29 1014.1
20260503220016 17 290 3.2 6.4 0.00 0.00 0.00 30 1014.2
20260503215508 17 193 3.2 8.0 0.00 0.00 0.00 29 1014.0